This demonstration page uses our WeatherBlox Daily Observations layout. Learn more.

Left ArrowRight Arrow

39.01783, -85.05884

Hourly Observations for June 3, 2015

Temp ( °F °C ) Dew Point ( °F °C ) Humidity (%) Winds ( mph kmh ) Pressure ( in mb ) Visibility ( mi km ) Precip ( " mm )
12:29 am 00:29 Partly Cloudy 57 14 54 12 88 88 N N/A 30.09 1019 10 16 N/A
12:52 am 00:52 Mostly Clear 58 14.4 53 11.7 84 84 NW 3 6 30.08 1019 10 16 N/A
1:52 am 01:52 Clear 57 13.9 52 11.1 83 83 ENE 5 7 30.06 1018 10 16 N/A
2:52 am 02:52 Clear 56 13.3 51 10.6 84 84 ENE 3 6 30.06 1018 9 14 N/A
3:52 am 03:52 Clear with Mist and Fog 53 11.7 51 10.6 93 93 N N/A 30.05 1018 5 8 N/A
4:52 am 04:52 Clear with Mist and Fog 54 12.2 51 10.6 90 90 E 5 7 30.05 1018 6 10 N/A
5:16 am 05:16 Mostly Cloudy with Mist and Fog 54 12 52 11 94 94 N N/A 30.06 1018 5 8 N/A
5:52 am 05:52 Cloudy with Mist and Fog 54 12.2 52 11.1 93 93 N 7 11 30.06 1018 4 6 N/A
6:35 am 06:35 Cloudy with Mist and Fog 55 13 54 12 94 94 NNW 5 7 30.06 1018 2 3 N/A
6:52 am 06:52 Cloudy with Mist and Fog 55 12.8 53 11.7 93 93 N 5 7 30.06 1018 2 3 N/A
7:52 am 07:52 Cloudy with Mist and Fog 56 13.3 53 11.7 90 90 N N/A 30.08 1019 2 3 N/A
8:52 am 08:52 Cloudy with Mist and Fog 59 15 54 12.2 83 83 ENE 5 7 30.07 1018 2 3 N/A
9:52 am 09:52 Cloudy with Haze 61 16.1 54 12.2 78 78 NE 5 7 30.07 1018 2 3 N/A
10:52 am 10:52 Cloudy with Haze 63 17.2 56 13.3 78 78 NE 3 6 30.06 1018 2 3 N/A
11:08 am 11:08 Mostly Cloudy with Haze 66 19 55 13 68 68 ENE 6 9 30.06 1018 5 8 N/A
11:29 am 11:29 Mostly Cloudy with Haze 64 18 55 13 73 73 E 3 6 30.06 1018 6 10 N/A
11:52 am 11:52 Mostly Cloudy 66 18.9 55 12.8 68 68 ENE 3 6 30.06 1018 7 11 N/A
12:52 pm 12:52 Cloudy 67 19.4 56 13.3 68 68 E 5 7 30.05 1018 7 11 N/A
1:11 pm 13:11 Cloudy 68 20 55 13 64 64 ENE 7 11 30.03 1017 7 11 N/A
1:52 pm 13:52 Cloudy 67 19.4 55 12.8 66 66 N N/A 30.06 1018 8 13 N/A
2:35 pm 14:35 Cloudy 70 21 55 13 60 60 N N/A 30.03 1017 8 13 N/A
2:52 pm 14:52 Mostly Cloudy 70 21.1 56 13.3 61 61 N N/A 30.04 1017 8 13 N/A
3:52 pm 15:52 Mostly Cloudy 70 21.1 56 13.3 61 61 N N/A 30.03 1017 8 13 N/A
4:52 pm 16:52 Cloudy 73 22.8 57 13.9 57 57 VRB 7 11 30.01 1016 8 13 N/A
5:52 pm 17:52 Mostly Cloudy 71 21.7 57 13.9 61 61 N N/A 30.01 1016 9 14 N/A
6:52 pm 18:52 Cloudy 71 21.7 58 14.4 63 63 SE 7 11 30.00 1016 9 14 N/A
7:52 pm 19:52 Mostly Cloudy 70 21.1 58 14.4 66 66 SE 7 11 30.01 1016 8 13 N/A
8:52 pm 20:52 Mostly Cloudy 68 20 59 15 73 73 N N/A 30.01 1016 8 13 N/A
9:52 pm 21:52 Mostly Cloudy 66 18.9 58 14.4 75 75 N N/A 30.02 1017 9 14 N/A
10:52 pm 22:52 Mostly Clear 63 17.2 58 14.4 84 84 N N/A 30.02 1017 7 11 N/A
11:52 pm 23:52 Clear 60 15.6 57 13.9 90 90 NW 5 7 30.01 1016 7 11 N/A

Powered by AerisWeather